Precipitable_Water
0.51 0.47 0.47 0.50 0.55 0.61 0.60 0.56 0.54 0.54 0.55 0.56 0.59 0.63 0.76 0.92 0.99 0.96 0.87 0.91 0.72 0.56 0.58 0.63 0.61 0.54 0.51 0.48 0.36 0.38 0.33 0.36 0.30 0.28 0.30 0.30 0.22 0.24 0.21 0.24 0.26 0.32 0.27 0.27 0.30 0.28 0.28 0.46 0.42 0.44 0.58 0.78 0.83 0.86
0.51 0.53 0.61 0.67 0.68 0.68 0.67 0.66 0.66 0.65 0.62 0.61 0.63 0.72 0.88 0.98 0.99 1.00 0.79 0.92 0.89 0.67 0.62 0.74 0.73 0.71 0.65 0.61 0.53 0.48 0.38 0.38 0.39 0.36 0.36 0.35 0.30 0.30 0.30 0.23 0.25 0.23 0.31 0.30 0.29 0.29 0.39 0.45 0.45 0.45 0.51 0.59 0.69 0.70
0.62 0.68 0.68 0.66 0.67 0.67 0.65 0.64 0.67 0.65 0.62 0.67 0.73 0.83 0.93 1.01 1.00 0.99 0.87 0.88 0.82 0.66 0.64 0.65 0.62 0.74 0.76 0.72 0.70 0.50 0.50 0.49 0.43 0.46 0.38 0.37 0.29 0.32 0.27 0.25 0.28 0.32 0.33 0.27 0.32 0.36 0.38 0.40 0.43 0.44 0.47 0.52 0.60 0.62
0.69 0.66 0.65 0.67 0.68 0.67 0.66 0.64 0.62 0.60 0.71 0.76 0.81 0.90 0.99 1.00 1.00 1.01 0.86 0.90 0.82 0.71 0.54 0.59 0.74 0.67 0.73 0.75 0.69 0.66 0.60 0.62 0.60 0.54 0.48 0.42 0.36 0.40 0.33 0.33 0.33 0.37 0.39 0.34 0.30 0.34 0.40 0.43 0.44 0.45 0.47 0.50 0.53 0.56
0.65 0.66 0.64 0.64 0.67 0.67 0.64 0.61 0.57 0.69 0.75 0.80 0.90 0.97 0.99 0.99 1.00 1.00 0.95 0.92 0.92 0.72 0.56 0.60 0.74 0.75 0.76 0.73 0.70 0.71 0.66 0.62 0.58 0.50 0.47 0.43 0.50 0.48 0.46 0.42 0.34 0.39 0.35 0.32 0.32 0.40 0.38 0.41 0.49 0.51 0.46 0.44 0.46 0.53
0.66 0.64 0.65 0.67 0.66 0.62 0.58 0.56 0.63 0.73 0.80 0.89 0.97 0.97 0.99 0.97 0.99 0.92 0.75 0.91 0.96 0.90 0.66 0.53 0.71 0.73 0.78 0.78 0.74 0.71 0.70 0.67 0.62 0.54 0.51 0.55 0.59 0.51 0.42 0.40 0.48 0.53 0.55 0.52 0.42 0.48 0.49 0.52 0.54 0.55 0.52 0.46 0.45 0.48
0.64 0.66 0.66 0.66 0.62 0.56 0.53 0.65 0.74 0.79 0.88 0.98 0.98 0.98 0.97 0.98 0.98 0.79 0.74 0.88 0.99 0.94 0.68 0.57 0.60 0.75 0.80 0.78 0.75 0.72 0.74 0.67 0.62 0.56 0.53 0.54 0.54 0.55 0.47 0.43 0.57 0.61 0.63 0.62 0.59 0.55 0.47 0.49 0.47 0.52 0.53 0.54 0.55 0.50
0.66 0.68 0.65 0.59 0.53 0.55 0.69 0.75 0.78 0.87 0.96 0.99 0.97 0.96 0.98 0.99 0.98 0.89 0.95 0.97 1.01 0.82 0.75 0.57 0.58 0.65 0.81 0.65 0.61 0.73 0.63 0.64 0.61 0.57 0.58 0.54 0.57 0.55 0.45 0.59 0.67 0.70 0.72 0.74 0.76 0.67 0.57 0.59 0.58 0.56 0.56 0.54 0.51 0.52
0.71 0.63 0.57 0.59 0.67 0.70 0.74 0.80 0.87 0.93 0.97 0.96 0.95 0.99 1.00 0.92 0.82 0.88 1.01 1.01 0.99 0.82 0.63 0.62 0.53 0.50 0.77 0.70 0.72 0.69 0.68 0.54 0.65 0.55 0.55 0.57 0.52 0.46 0.55 0.64 0.72 0.70 0.61 0.52 0.62 0.71 0.68 0.59 0.58 0.57 0.54 0.52 0.55 0.61
0.68 0.58 0.63 0.70 0.73 0.76 0.81 0.86 0.91 0.96 0.95 0.94 0.96 0.87 0.76 0.87 1.01 1.00 0.88 0.78 0.78 0.78 0.76 0.62 0.68 0.56 0.67 0.65 0.62 0.64 0.66 0.56 0.49 0.57 0.65 0.54 0.50 0.65 0.70 0.76 0.81 0.85 0.81 0.62 0.54 0.61 0.63 0.60 0.58 0.55 0.54 0.55 0.59 0.68
0.62 0.60 0.67 0.70 0.74 0.77 0.79 0.81 0.90 0.97 0.98 0.91 0.81 0.77 0.92 1.05 0.91 0.80 0.69 0.65 0.68 0.63 0.71 0.70 0.67 0.59 0.74 0.57 0.58 0.67 0.57 0.61 0.46 0.49 0.49 0.49 0.48 0.61 0.73 0.76 0.84 0.88 0.88 0.85 0.78 0.73 0.70 0.69 0.64 0.62 0.70 0.76 0.82 0.82
0.60 0.65 0.68 0.71 0.74 0.73 0.71 0.72 0.84 0.91 0.89 0.89 0.88 0.95 0.94 0.80 0.72 0.62 0.59 0.66 0.62 0.58 0.71 0.67 0.70 0.72 0.72 0.79 0.66 0.69 0.55 0.52 0.40 0.55 0.48 0.43 0.55 0.66 0.70 0.74 0.80 0.85 0.86 0.86 0.88 0.87 0.90 0.84 0.88 0.92 0.90 0.92 0.83 0.89
0.61 0.68 0.71 0.73 0.73 0.68 0.67 0.68 0.73 0.82 0.89 0.91 0.80 0.70 0.64 0.60 0.50 0.49 0.47 0.53 0.55 0.64 0.65 0.67 0.65 0.68 0.74 0.75 0.66 0.58 0.46 0.44 0.53 0.45 0.42 0.51 0.59 0.63 0.68 0.69 0.73 0.80 0.85 0.88 0.88 0.93 0.95 0.94 0.95 0.94 0.95 1.02 1.06 1.06
0.61 0.68 0.72 0.73 0.72 0.70 0.70 0.70 0.73 0.77 0.76 0.53 0.49 0.42 0.46 0.45 0.49 0.53 0.55 0.56 0.63 0.64 0.64 0.70 0.66 0.63 0.62 0.57 0.56 0.49 0.51 0.49 0.39 0.36 0.40 0.52 0.60 0.63 0.64 0.66 0.67 0.67 0.72 0.77 0.82 0.89 0.91 0.92 0.90 0.94 0.98 1.03 1.04 1.02
0.63 0.64 0.71 0.73 0.72 0.69 0.71 0.72 0.76 0.76 0.56 0.45 0.46 0.36 0.42 0.46 0.48 0.50 0.53 0.54 0.61 0.65 0.64 0.64 0.62 0.55 0.50 0.47 0.48 0.46 0.41 0.38 0.40 0.38 0.46 0.53 0.60 0.61 0.62 0.63 0.64 0.64 0.65 0.66 0.70 0.74 0.82 0.89 0.89 0.90 0.95 0.98 0.97 0.97
0.70 0.68 0.69 0.73 0.70 0.70 0.70 0.77 0.70 0.64 0.53 0.45 0.41 0.36 0.37 0.34 0.33 0.34 0.36 0.37 0.47 0.52 0.65 0.62 0.50 0.47 0.42 0.42 0.39 0.37 0.37 0.34 0.41 0.49 0.52 0.54 0.59 0.61 0.62 0.61 0.59 0.60 0.62 0.63 0.65 0.66 0.65 0.69 0.77 0.82 0.85 0.86 0.87 0.88
0.74 0.71 0.74 0.74 0.72 0.72 0.73 0.73 0.59 0.46 0.45 0.43 0.40 0.41 0.36 0.34 0.33 0.34 0.35 0.33 0.46 0.43 0.39 0.44 0.36 0.38 0.44 0.37 0.38 0.44 0.41 0.47 0.54 0.56 0.52 0.56 0.59 0.60 0.60 0.55 0.53 0.52 0.52 0.51 0.58 0.59 0.59 0.62 0.62 0.62 0.60 0.67 0.70 0.72
0.67 0.77 0.81 0.81 0.75 0.75 0.68 0.61 0.51 0.48 0.43 0.46 0.43 0.44 0.41 0.37 0.37 0.36 0.36 0.38 0.37 0.40 0.38 0.35 0.39 0.32 0.31 0.29 0.31 0.37 0.41 0.46 0.51 0.53 0.46 0.50 0.53 0.53 0.52 0.49 0.47 0.45 0.43 0.44 0.43 0.51 0.52 0.50 0.51 0.53 0.54 0.56 0.55 0.54
0.67 0.72 0.75 0.82 0.76 0.68 0.59 0.53 0.57 0.43 0.45 0.49 0.52 0.52 0.49 0.42 0.43 0.42 0.39 0.38 0.41 0.41 0.39 0.36 0.31 0.28 0.29 0.32 0.30 0.32 0.33 0.33 0.38 0.42 0.45 0.46 0.46 0.45 0.43 0.39 0.37 0.35 0.35 0.34 0.34 0.36 0.44 0.46 0.46 0.46 0.49 0.51 0.47 0.47
0.67 0.69 0.75 0.78 0.81 0.64 0.55 0.56 0.63 0.49 0.45 0.46 0.56 0.55 0.52 0.49 0.45 0.45 0.43 0.41 0.39 0.37 0.33 0.31 0.30 0.32 0.32 0.34 0.33 0.31 0.34 0.32 0.33 0.34 0.36 0.39 0.41 0.40 0.38 0.35 0.31 0.30 0.29 0.31 0.34 0.34 0.37 0.37 0.39 0.41 0.40 0.40 0.40 0.39
0.68 0.71 0.74 0.82 0.78 0.68 0.56 0.56 0.56 0.49 0.53 0.52 0.56 0.59 0.52 0.54 0.44 0.40 0.44 0.46 0.40 0.35 0.34 0.36 0.36 0.39 0.43 0.41 0.39 0.35 0.35 0.33 0.33 0.31 0.30 0.28 0.31 0.35 0.34 0.33 0.30 0.29 0.29 0.30 0.33 0.34 0.35 0.35 0.36 0.36 0.36 0.34 0.34 0.32
0.70 0.70 0.77 0.80 0.66 0.63 0.59 0.57 0.57 0.59 0.58 0.54 0.55 0.55 0.49 0.47 0.45 0.40 0.50 0.45 0.42 0.42 0.42 0.41 0.39 0.37 0.37 0.39 0.39 0.41 0.38 0.36 0.36 0.35 0.34 0.32 0.33 0.33 0.33 0.33 0.31 0.29 0.30 0.31 0.34 0.33 0.33 0.32 0.32 0.34 0.31 0.30 0.31 0.30
0.74 0.77 0.72 0.67 0.56 0.51 0.49 0.63 0.56 0.55 0.48 0.49 0.54 0.49 0.48 0.51 0.51 0.56 0.43 0.45 0.48 0.52 0.53 0.50 0.47 0.52 0.47 0.45 0.46 0.44 0.40 0.35 0.33 0.34 0.34 0.32 0.32 0.36 0.35 0.34 0.34 0.32 0.31 0.32 0.33 0.33 0.32 0.30 0.30 0.30 0.31 0.30 0.29 0.28
0.82 0.71 0.63 0.52 0.48 0.42 0.55 0.54 0.56 0.54 0.56 0.52 0.48 0.47 0.48 0.48 0.54 0.48 0.39 0.43 0.48 0.54 0.54 0.55 0.52 0.46 0.45 0.48 0.40 0.38 0.39 0.35 0.33 0.34 0.36 0.32 0.30 0.32 0.34 0.34 0.34 0.34 0.34 0.34 0.35 0.34 0.34 0.34 0.33 0.33 0.32 0.29 0.29 0.28
0.50 0.45 0.53 0.35 0.46 0.45 0.41 0.41 0.43 0.46 0.44 0.49 0.49 0.49 0.51 0.54 0.45 0.40 0.41 0.43 0.47 0.50 0.53 0.54 0.50 0.48 0.44 0.43 0.38 0.38 0.43 0.36 0.33 0.33 0.36 0.33 0.32 0.32 0.33 0.34 0.34 0.36 0.36 0.33 0.33 0.34 0.35 0.35 0.35 0.34 0.33 0.31 0.28 0.30
0.33 0.38 0.37 0.40 0.44 0.43 0.40 0.37 0.37 0.39 0.42 0.44 0.49 0.54 0.57 0.50 0.42 0.38 0.41 0.47 0.52 0.54 0.55 0.54 0.52 0.50 0.48 0.45 0.40 0.37 0.36 0.37 0.36 0.33 0.34 0.34 0.34 0.32 0.31 0.31 0.31 0.33 0.35 0.35 0.34 0.33 0.35 0.35 0.34 0.33 0.33 0.34 0.33 0.33
0.40 0.44 0.52 0.56 0.54 0.55 0.52 0.49 0.49 0.44 0.41 0.42 0.46 0.49 0.48 0.42 0.39 0.46 0.52 0.58 0.61 0.63 0.69 0.65 0.60 0.57 0.54 0.49 0.48 0.43 0.40 0.39 0.38 0.36 0.37 0.38 0.37 0.37 0.35 0.32 0.32 0.34 0.34 0.37 0.37 0.36 0.35 0.34 0.34 0.34 0.33 0.34 0.36 0.36
0.53 0.53 0.50 0.58 0.55 0.60 0.52 0.53 0.48 0.44 0.44 0.48 0.50 0.49 0.51 0.43 0.46 0.56 0.57 0.63 0.69 0.71 0.70 0.65 0.64 0.60 0.57 0.54 0.48 0.41 0.38 0.38 0.40 0.38 0.36 0.35 0.36 0.37 0.37 0.37 0.38 0.36 0.36 0.38 0.35 0.35 0.38 0.37 0.36 0.36 0.36 0.36 0.38 0.41
0.55 0.63 0.54 0.51 0.57 0.56 0.58 0.57 0.54 0.64 0.59 0.47 0.47 0.47 0.49 0.58 0.62 0.60 0.62 0.68 0.72 0.72 0.68 0.64 0.57 0.56 0.54 0.50 0.47 0.43 0.38 0.33 0.29 0.30 0.30 0.30 0.32 0.34 0.38 0.39 0.39 0.40 0.39 0.40 0.39 0.38 0.36 0.34 0.37 0.37 0.39 0.40 0.42 0.41
0.67 0.65 0.51 0.53 0.54 0.50 0.57 0.71 0.53 0.56 0.58 0.59 0.58 0.56 0.60 0.68 0.70 0.72 0.73 0.69 0.70 0.70 0.71 0.67 0.61 0.53 0.49 0.46 0.40 0.38 0.36 0.35 0.33 0.31 0.31 0.31 0.33 0.37 0.39 0.40 0.41 0.42 0.42 0.42 0.42 0.43 0.42 0.41 0.42 0.43 0.42 0.40 0.40 0.39
0.59 0.58 0.56 0.54 0.57 0.60 0.63 0.55 0.59 0.65 0.64 0.60 0.61 0.54 0.53 0.64 0.77 0.81 0.78 0.78 0.76 0.73 0.64 0.56 0.52 0.51 0.46 0.40 0.35 0.29 0.27 0.35 0.38 0.38 0.37 0.38 0.40 0.41 0.42 0.43 0.43 0.43 0.44 0.44 0.43 0.42 0.42 0.41 0.41 0.40 0.40 0.40 0.40 0.40
0.61 0.56 0.55 0.46 0.52 0.59 0.58 0.56 0.51 0.53 0.57 0.58 0.61 0.63 0.66 0.68 0.63 0.77 0.74 0.67 0.62 0.59 0.54 0.52 0.49 0.46 0.43 0.37 0.34 0.33 0.32 0.35 0.39 0.40 0.41 0.39 0.39 0.41 0.42 0.44 0.43 0.43 0.44 0.43 0.44 0.44 0.42 0.41 0.41 0.40 0.39 0.39 0.39 0.39
0.55 0.51 0.50 0.51 0.51 0.53 0.62 0.54 0.51 0.55 0.55 0.57 0.58 0.59 0.61 0.60 0.55 0.65 0.64 0.65 0.58 0.53 0.51 0.48 0.45 0.43 0.40 0.35 0.35 0.37 0.38 0.42 0.39 0.38 0.37 0.38 0.39 0.40 0.40 0.40 0.40 0.40 0.39 0.40 0.41 0.42 0.42 0.42 0.41 0.41 0.40 0.39 0.40 0.39
Wind_Speed
31 32 33 33 34 34 34 33 32 30 29 31 32 32 32 29 27 24 20 15 13 14 17 16 15 13 12 10 8 8 8 2 3 3 6 8 15 17 25 28 28 30 35 37 37 38 39 28 22 28 22 23 21 22
31 32 32 33 33 34 33 32 30 29 28 29 30 30 29 26 24 22 18 15 14 13 14 17 16 15 12 10 8 5 5 7 2 1 4 6 10 15 20 24 33 34 32 31 38 38 34 33 31 31 26 29 27 27
31 31 32 33 34 34 32 31 29 27 27 28 28 29 28 24 21 18 16 14 13 14 16 15 13 9 8 7 5 4 4 4 3 4 3 3 8 12 17 22 27 30 34 38 38 40 39 39 38 38 36 34 35 32
31 31 32 33 33 32 30 29 27 25 25 26 28 28 26 20 17 15 13 12 12 14 15 16 14 11 7 9 5 3 4 4 5 4 3 2 4 6 12 19 25 29 32 36 43 45 43 44 45 44 44 42 39 38
30 31 32 33 32 30 28 27 24 23 24 27 28 25 19 15 13 11 11 11 11 13 14 16 16 14 11 10 6 4 5 4 4 4 4 5 6 8 11 15 22 28 34 37 40 40 43 45 45 46 49 47 46 40
30 31 32 32 31 28 26 24 22 23 25 27 25 17 14 10 10 10 11 11 12 12 13 12 15 14 15 13 11 8 7 7 6 7 7 6 6 6 7 9 17 22 30 38 43 46 47 46 45 45 46 47 48 47
30 31 32 31 29 26 24 21 20 23 25 24 16 11 11 10 11 12 13 13 13 12 13 12 14 16 16 15 14 14 13 10 10 10 10 10 8 4 7 14 21 23 27 35 41 44 49 47 46 45 44 44 45 48
29 30 30 28 26 23 20 18 20 22 22 16 11 11 13 12 12 12 15 14 15 14 15 15 13 17 20 20 20 20 21 20 18 15 15 17 15 11 12 20 25 21 20 22 31 41 44 42 43 43 44 41 43 43
28 28 26 24 22 19 18 19 20 19 14 11 10 11 12 12 12 12 13 14 16 17 15 16 15 14 17 16 17 20 19 19 22 23 21 20 22 18 22 28 23 22 19 13 13 28 33 37 39 39 40 41 40 41
25 24 21 21 20 20 20 20 19 15 10 10 10 12 11 12 11 12 12 13 15 16 15 16 17 17 17 16 15 14 14 21 21 21 22 25 27 32 32 31 28 22 21 18 9 13 20 24 30 32 35 35 36 37
21 19 18 19 20 20 21 20 17 14 8 7 9 12 13 11 11 9 10 12 13 14 14 15 14 15 14 16 16 15 15 13 18 21 22 26 29 36 38 38 35 31 28 26 23 12 10 13 17 23 24 24 27 30
18 17 16 17 18 19 20 20 14 13 9 8 8 10 11 10 9 9 10 10 10 11 13 14 15 13 13 13 13 12 14 14 17 18 19 22 28 32 35 37 38 35 34 35 30 26 21 21 18 17 15 17 20 21
16 16 15 15 16 18 19 20 15 10 12 11 9 8 8 10 12 11 10 8 10 10 12 15 14 12 11 11 11 12 13 14 14 17 16 21 26 28 30 31 33 34 34 32 32 30 30 27 27 24 20 22 25 22
14 13 14 13 15 16 17 18 14 11 8 9 11 11 9 9 10 8 10 11 12 12 13 13 13 10 12 11 11 10 12 12 13 14 16 20 23 24 26 26 28 29 31 30 30 28 26 26 23 22 22 21 21 19
13 12 12 13 14 15 14 14 14 12 10 8 9 9 11 11 10 11 12 12 13 12 12 12 10 12 10 9 10 11 10 10 12 13 15 17 19 21 22 23 24 25 25 24 24 23 23 23 23 21 21 20 19 19
12 10 9 13 14 16 13 11 11 11 10 10 11 12 12 14 14 15 15 14 15 14 11 9 10 9 10 8 10 10 10 10 11 12 14 15 16 19 20 19 20 21 20 20 19 18 18 17 17 16 16 15 15 13
11 9 11 12 13 12 13 8 9 9 9 9 11 13 14 15 16 17 16 16 15 13 11 7 9 9 9 8 9 10 12 12 14 13 13 14 16 17 17 17 18 17 17 17 16 15 14 12 11 11 10 9 9 9
8 10 12 14 12 8 10 9 7 8 9 10 11 13 14 15 16 17 18 17 15 12 12 9 9 9 7 8 10 12 13 13 13 14 13 14 16 16 16 17 17 17 15 14 14 12 11 10 10 8 7 7 6 6
10 10 11 12 10 8 7 8 8 7 8 8 9 11 12 14 15 16 17 18 16 15 12 11 9 11 11 11 13 14 14 15 15 13 13 14 15 16 16 17 16 16 15 14 12 11 9 9 8 7 6 5 5 5
9 8 8 8 8 7 6 7 7 7 8 8 9 11 11 12 14 15 16 17 16 16 15 13 13 13 13 13 14 14 15 15 15 14 13 14 14 15 15 16 16 15 14 14 12 12 10 9 8 7 7 7 7 7
6 6 7 5 5 6 7 7 7 9 8 8 9 9 9 10 12 13 13 15 14 14 14 14 14 14 14 14 15 15 15 16 15 15 15 15 15 15 15 15 15 14 14 13 12 11 11 10 10 10 10 10 10 10
4 6 4 5 5 5 7 8 9 9 8 9 9 10 10 10 12 13 12 12 13 13 13 14 14 15 15 15 16 15 16 16 15 15 14 15 14 14 14 14 14 13 13 12 12 11 11 11 13 12 12 13 13 12
4 3 4 5 5 6 7 8 9 9 9 10 9 9 10 10 11 12 11 12 12 13 14 14 15 14 15 16 16 15 17 17 16 16 16 16 15 13 14 14 13 13 13 12 12 11 11 12 12 12 13 13 13 13
4 4 4 5 5 6 7 8 9 9 9 9 10 10 11 12 12 11 12 12 13 13 13 16 16 16 16 15 18 18 18 19 18 17 16 17 16 15 15 14 14 13 13 13 12 12 12 11 12 12 12 13 13 12
4 4 4 6 6 7 8 9 9 9 10 11 10 10 11 12 12 11 12 13 13 14 15 15 17 18 17 17 19 19 18 20 19 19 17 18 17 16 15 15 14 12 13 14 13 13 12 12 12 13 12 12 12 12
4 3 4 6 6 7 8 9 9 10 11 11 10 11 12 12 11 11 12 14 14 14 16 17 18 19 19 19 19 20 21 21 20 19 18 18 17 16 16 16 15 15 15 15 14 14 14 13 13 13 12 11 12 13
4 3 4 5 7 8 8 8 10 11 11 11 12 12 12 12 13 13 13 15 16 15 17 18 18 19 20 20 21 20 20 20 20 20 18 17 17 16 16 15 15 16 15 15 14 13 14 13 13 12 12 12 12 12
5 5 6 5 7 8 10 10 10 9 10 12 13 13 12 14 15 16 15 15 17 16 19 18 19 19 20 21 21 21 21 21 20 20 19 15 15 14 15 14 13 13 11 11 11 11 11 10 10 10 10 11 11 11
5 5 6 8 9 10 9 9 11 12 12 15 15 15 15 15 17 17 16 17 16 19 18 19 19 20 21 21 21 21 22 20 18 17 16 15 14 14 14 13 12 12 11 9 9 9 9 9 8 9 8 8 8 8
7 7 9 10 10 11 9 10 14 16 16 15 16 16 15 13 15 17 17 17 18 19 20 20 20 19 20 21 21 21 19 16 16 16 15 15 14 14 14 14 13 12 11 10 9 8 9 9 8 8 8 7 7 7
8 8 8 10 11 12 10 14 15 15 14 15 14 14 15 15 15 16 18 19 19 20 20 19 19 19 20 21 21 20 18 15 15 15 15 14 15 15 15 15 14 13 12 11 10 10 10 9 9 8 8 8 8 9
8 9 12 12 11 10 12 12 15 14 14 14 14 13 15 15 16 16 20 20 21 20 19 20 20 19 20 19 19 18 17 16 15 14 14 15 16 17 17 16 14 13 12 11 11 10 10 10 9 9 10 10 10 10
8 9 9 9 10 10 10 14 15 13 15 13 13 16 16 16 16 17 20 21 21 21 20 20 20 19 18 18 18 17 16 16 16 15 15 16 16 17 16 15 14 14 13 12 11 11 10 10 9 9 9 9 9 9
Wind_Direction
324 326 326 327 327 327 326 325 325 324 323 326 330 332 335 335 336 339 335 329 328 332 328 320 319 318 333 338 341 343 338 260 274 236 226 225 225 223 224 222 219 215 214 219 220 223 223 219 223 215 212 217 222 222
324 325 327 328 329 329 327 326 326 325 324 326 329 333 334 334 335 339 338 337 330 329 335 335 326 314 310 314 329 343 337 349 11 256 247 242 238 226 231 229 222 226 223 221 222 223 222 222 229 225 225 226 229 232
325 326 327 328 329 329 329 328 328 327 326 328 331 333 334 333 337 340 343 347 349 344 340 341 351 350 336 332 332 338 345 338 320 336 323 244 243 247 234 231 235 232 231 232 232 229 231 230 232 231 234 234 235 237
326 327 328 328 329 330 330 330 330 329 331 332 333 334 334 336 339 345 348 351 356 1 2 4 3 2 6 346 334 314 310 323 345 336 321 301 287 273 251 250 247 239 239 237 238 235 236 235 235 236 238 237 238 239
327 329 329 330 330 331 331 333 333 335 336 335 335 336 341 344 351 358 1 1 2 6 5 5 9 27 26 19 18 4 350 327 321 332 314 306 296 295 277 267 253 245 243 240 238 235 235 237 238 237 238 238 239 241
330 331 331 331 331 331 332 334 334 337 337 337 339 345 354 8 18 17 16 15 11 14 17 26 27 33 34 33 37 34 22 22 23 19 2 336 308 315 306 285 274 268 256 250 245 242 241 239 238 237 237 237 237 238
332 333 333 332 332 331 333 336 337 339 341 344 354 9 25 37 31 31 28 22 26 33 32 33 40 43 32 37 54 46 49 48 40 30 23 7 355 340 335 311 303 289 271 257 247 241 239 236 236 236 238 237 239 239
336 337 337 337 337 338 339 342 342 345 349 3 30 46 45 47 46 43 39 45 44 43 48 52 51 46 50 53 61 60 58 55 49 45 38 29 25 21 5 341 329 318 296 271 242 232 232 232 233 236 234 237 237 236
341 344 346 350 353 356 356 353 351 352 7 30 51 51 41 42 42 47 54 56 46 51 61 52 52 55 40 45 55 57 55 52 48 46 44 39 30 23 356 354 358 355 350 318 238 217 217 222 227 229 231 233 234 234
347 351 358 2 4 4 3 2 1 8 33 57 53 36 41 41 54 61 57 51 49 52 57 52 47 46 43 42 44 47 53 48 47 42 46 43 38 26 19 14 18 23 29 43 108 171 195 208 217 223 223 226 229 229
351 357 1 3 5 7 7 7 12 26 57 49 38 37 42 55 53 56 49 49 47 50 49 40 40 32 33 31 37 43 45 47 41 37 42 37 36 28 28 31 36 41 43 50 61 96 166 198 203 208 216 225 216 215
352 356 358 2 7 9 12 14 21 29 33 44 45 50 48 44 39 40 40 42 36 32 26 19 18 20 21 24 25 31 33 41 39 32 38 37 30 28 31 36 40 47 49 54 61 70 81 102 119 131 151 161 167 170
352 356 357 2 7 11 14 16 20 38 50 45 39 40 32 34 38 37 23 22 11 10 5 0 8 10 14 16 20 24 33 36 36 32 37 32 25 28 31 34 38 44 49 56 59 66 74 84 92 97 106 121 130 138
352 354 359 1 5 5 8 17 24 26 21 29 31 29 30 23 17 7 350 344 341 338 347 347 352 3 10 7 13 14 22 25 29 25 29 21 20 23 27 30 33 36 42 48 54 59 63 71 90 87 96 111 115 129
349 351 355 0 2 4 6 12 19 24 29 30 27 27 18 3 359 352 352 347 345 332 329 339 341 356 0 6 7 4 6 12 15 15 11 10 11 17 19 23 25 29 35 40 44 50 60 71 74 78 84 98 96 105
348 346 356 359 359 0 1 10 17 28 38 39 37 24 13 8 3 358 351 346 342 338 328 332 338 337 352 355 1 359 351 350 346 346 348 357 359 4 7 11 14 19 24 30 34 42 50 54 61 70 74 79 85 87
353 360 354 352 352 354 4 5 19 36 38 34 33 26 21 16 11 7 1 356 349 353 349 349 351 345 341 348 347 343 338 329 321 325 333 338 343 346 352 357 360 4 7 12 17 25 26 31 41 47 55 60 69 74
353 355 357 355 354 358 17 25 37 37 39 30 28 25 21 19 16 15 13 11 11 8 13 13 7 8 352 344 338 336 333 333 330 324 324 322 326 331 334 338 342 346 349 352 354 359 8 10 15 24 30 34 43 44
337 339 346 358 6 14 22 27 23 28 24 20 15 14 16 16 15 14 16 17 18 20 20 16 13 8 4 352 342 337 334 330 330 326 320 322 322 322 326 326 327 330 331 334 339 336 341 349 349 348 352 355 2 360
330 335 343 350 8 11 18 18 12 11 5 2 2 4 3 7 11 13 16 18 20 24 25 21 16 8 0 354 349 343 341 336 331 327 322 322 325 324 326 326 325 323 322 322 321 325 319 320 322 325 323 321 318 318
333 345 349 360 1 6 4 353 358 354 347 347 353 354 353 359 4 5 8 11 14 15 16 11 7 5 359 354 351 347 345 341 336 332 330 323 322 321 323 325 325 324 323 320 316 314 313 311 308 305 302 301 300 303
333 340 348 354 351 352 352 357 350 348 342 343 344 346 349 350 354 356 351 1 4 3 1 358 358 355 354 354 348 348 348 343 338 334 330 327 327 327 325 325 325 324 323 321 317 312 309 304 301 300 300 298 297 296
339 341 341 345 340 349 340 346 346 350 346 347 341 341 345 345 349 345 346 349 351 354 353 353 349 344 346 347 346 341 343 340 338 336 334 330 324 322 323 322 322 321 318 319 315 311 310 307 303 300 299 298 296 295
341 330 332 337 337 337 340 341 346 345 345 344 343 341 344 345 341 341 344 345 347 343 347 349 348 347 341 338 341 341 341 337 334 332 331 329 325 321 319 318 316 315 314 311 309 308 307 306 304 304 301 299 297 294
326 333 328 327 328 331 335 338 339 339 340 342 339 338 344 341 337 340 341 345 344 344 343 343 345 344 339 336 339 338 337 336 333 329 329 327 323 319 316 316 314 313 314 308 303 302 301 301 301 301 298 299 295 293
330 329 329 334 335 332 338 336 338 336 337 338 336 340 338 335 334 332 340 341 340 339 340 340 339 338 338 337 334 335 335 335 332 329 328 326 324 320 316 312 308 308 310 307 302 299 297 297 297 296 294 286 286 288
336 335 335 340 339 338 335 333 336 335 336 336 337 337 336 335 338 339 335 335 338 335 337 333 334 334 336 336 335 333 333 334 335 330 327 324 323 321 318 314 311 309 302 304 305 305 301 298 295 293 291 289 289 289
325 330 319 338 335 334 335 335 335 335 337 341 338 339 329 337 333 337 334 332 329 329 332 334 333 334 334 335 336 336 334 332 328 333 328 325 328 328 326 321 318 318 308 305 308 306 307 309 305 304 302 296 292 290
317 310 321 316 319 326 325 334 340 336 334 335 330 333 334 333 333 334 332 331 330 332 328 329 331 334 335 333 333 336 338 337 337 338 340 340 339 337 335 332 329 327 323 308 309 312 315 304 309 311 312 313 309 303
318 320 313 314 318 322 337 319 331 332 330 329 331 330 330 331 339 337 337 338 335 335 333 331 332 333 333 336 336 334 335 338 341 341 340 340 340 340 338 333 329 326 321 314 310 303 307 306 300 302 304 307 309 311
329 324 322 321 317 324 331 331 328 330 332 331 332 333 336 337 337 344 341 340 337 337 336 336 336 336 338 340 340 339 340 339 338 339 339 337 338 337 336 333 328 324 320 315 309 306 305 304 301 301 301 303 305 302
313 315 316 321 320 329 330 334 338 335 334 333 334 340 336 340 340 341 343 342 341 341 342 339 341 341 341 342 343 344 342 338 337 339 339 339 336 335 333 333 329 326 321 314 309 305 302 300 297 296 296 298 299 299
313 323 331 329 331 336 339 338 337 338 338 338 344 343 341 344 346 343 344 345 344 344 344 344 345 346 347 348 349 348 347 346 341 338 340 340 338 337 335 334 332 327 321 315 309 304 301 300 298 297 296 297 299 300